Hourly Data Report for September 27, 2006

TORONTO CITY
ONTARIO

43°40'00.000" N
79°24'00.000" W
112.50 m
6158355
71508
XTO

Download Data

Hourly Data (September 2006)
Hourly Data Report for September 27, 2006
TIME
LST
Temp Definition
°C
Dew Point Definition
°C
Rel Hum Definition
%
Precip. Amount Definition
mm

Wind Dir Definition
10's deg

Wind Spd Definition
km/h
Visibility Definition
km
Stn Press Definition
kPa
Hmdx Definition


Wind Chill Definition


Weather Definition


00:00 10.9 8.7 86   LegendMM LegendMM   99.98     LegendNANA
01:00 10.6 8.6 87   LegendMM LegendMM   99.94     LegendNANA
02:00 10.9 8.8 87   LegendMM LegendMM   99.85     LegendNANA
03:00 11.7 10.2 91   LegendMM LegendMM   99.77     LegendNANA
04:00 11.6 10.5 93   LegendMM LegendMM   99.73     LegendNANA
05:00 11.9 11.1 95   LegendMM LegendMM   99.69     LegendNANA
06:00 11.9 11.2 95   LegendMM LegendMM   99.63     LegendNANA
07:00 12.4 11.9 97   LegendMM LegendMM   99.59     LegendNANA
08:00 16.4 15.4 94   LegendMM LegendMM   99.56     LegendNANA
09:00 17.5 15.2 86   LegendMM LegendMM   99.55     LegendNANA
10:00 18.7 14.9 79   LegendMM LegendMM   99.50     LegendNANA
11:00 19.9 14.7 72   LegendMM LegendMM   99.45     LegendNANA
12:00 20.8 15.1 70   LegendMM LegendMM   99.41 25   LegendNANA
13:00 20.8 14.7 68   LegendMM LegendMM   99.35 25   LegendNANA
14:00 21.5 14.6 65   LegendMM LegendMM   99.26 25   LegendNANA
15:00 20.4 14.1 67   LegendMM LegendMM   99.25     LegendNANA
16:00 20.3 14.2 68   LegendMM LegendMM   99.21     LegendNANA
17:00 19.6 14.3 71   LegendMM LegendMM   99.21     LegendNANA
18:00 18.9 14.7 77   LegendMM LegendMM   99.17     LegendNANA
19:00 18.8 14.7 77   LegendMM LegendMM   99.14     LegendNANA
20:00 18.3 15.1 82   LegendMM LegendMM   99.15     LegendNANA
21:00 17.1 14.6 85   LegendMM LegendMM   99.18     LegendNANA
22:00 14.3 13.6 96   LegendMM LegendMM   99.24     LegendNANA
23:00 14.0 13.5 97   LegendMM LegendMM   99.20     LegendNANA

Notes on Data Quality.

Legend

  • E = Estimated
  • M = Missing
  • NA = Not Available*
  • [empty] = Indicates an unobserved value
Date modified: